GEFSSE_con_cape1000_060.txt.gz
Probability
3 32 100 100 100 100 100 100 100 100 100 100 100 100 100 97 100 100 100 97 100 100 100 100 100 100 100 100 100 100 100 100 100 100 100 100 100 100 100 97 94 100 100
3 77 100 100 100 100 100 100 100 100 100 97 97 94 94 94 94 97 97 97 100 100 100 100 100 100 100 100 100 100 100 100 100 100 100 100 100 100 100 100 97 94 97
42 100 100 100 100 100 100 100 100 97 97 94 94 90 90 90 90 90 94 97 97 97 100 100 100 100 100 100 100 100 100 100 100 100 100 87 97 100 100 97 97 94 94
77 100 100 100 100 100 100 100 100 97 87 84 81 77 84 84 84 90 87 87 90 90 94 97 97 100 100 100 100 100 100 100 100 97 61 74 90 100 100 100 94 94 97
84 97 100 100 100 100 100 100 97 94 94 84 84 74 84 84 81 84 84 87 84 84 87 87 87 94 100 100 100 97 100 100 97 58 48 45 61 94 94 94 97 94 97
90 100 100 100 100 100 100 100 97 90 94 87 81 74 81 81 77 74 71 71 74 74 74 84 90 90 94 94 97 97 94 90 55 39 32 39 45 94 94 94 94 90 97
90 97 100 100 100 100 100 100 100 94 94 87 81 74 68 65 52 52 52 55 61 61 61 71 84 81 77 90 94 97 97 94 29 26 29 39 55 84 90 94 94 90 90
81 97 100 100 100 100 100 100 100 97 97 94 84 74 61 65 52 35 29 32 39 39 48 58 61 68 71 84 90 94 94 87 48 42 32 39 71 84 84 84 90 90 90
81 100 100 100 100 100 100 100 100 100 100 100 97 84 71 58 52 39 26 26 23 23 26 26 45 61 61 68 71 81 90 87 19 32 45 42 77 84 81 77 87 90 90
65 100 100 100 100 100 100 100 100 100 100 100 100 94 77 65 42 32 16 10 3 6 6 13 16 32 48 52 77 77 81 52 19 32 35 52 97 84 84 74 77 81 87
48 58 87 90 100 100 100 100 100 100 100 100 100 100 87 35 13 23 13 10 0 3 0 3 10 19 19 13 42 55 23 0 3 16 26 68 97 87 87 84 81 81 84
42 52 65 77 81 90 100 100 100 100 100 81 61 58 45 10 0 6 6 16 6 0 3 3 3 6 0 0 0 3 3 0 0 3 39 100 97 90 90 81 81 77 84
29 35 58 65 65 65 77 65 77 84 74 55 39 29 23 3 0 0 0 0 0 3 0 0 0 0 0 0 0 0 0 0 0 0 16 87 84 81 87 84 90 84 84
19 23 26 61 42 48 35 32 45 58 45 32 19 6 3 3 0 0 0 0 0 0 0 0 0 0 0 0 0 0 0 0 0 0 3 74 77 74 77 71 77 87 84
10 3 13 23 19 19 23 19 32 45 42 32 23 10 3 3 3 0 0 0 0 0 0 0 0 0 0 0 0 0 0 0 0 0 3 61 84 68 61 68 68 74 77
6 3 3 13 19 6 16 13 23 26 29 16 16 13 10 3 3 0 0 0 0 0 0 0 0 0 0 0 0 0 0 0 0 0 0 13 81 81 68 58 68 68 74
0 0 3 0 13 6 10 10 16 19 19 19 16 10 10 6 3 0 0 0 0 0 0 0 0 0 0 0 0 0 0 0 0 0 0 0 3 29 68 58 58 61 68
0 0 0 3 6 6 3 13 23 16 13 16 13 10 6 3 0 0 0 0 0 0 0 0 0 0 0 0 0 0 0 0 0 0 0 0 0 0 13 61 77 65 58
0 0 0 0 0 0 10 6 10 16 13 19 13 10 6 3 0 0 0 0 0 0 0 0 0 0 0 0 0 0 0 0 0 0 0 0 0 0 0 6 55 68 68
0 0 0 0 0 0 0 6 3 3 6 16 13 13 6 3 3 0 0 0 0 0 0 0 0 0 0 0 0 0 0 0 0 0 0 0 0 0 0 0 0 6 55
0 0 0 0 0 0 0 0 0 0 0 6 13 13 6 3 3 0 0 0 0 0 0 0 0 0 0 0 0 0 0 0 0 0 0 0 0 0 0 0 0 0 0
0 0 0 0 0 0 0 0 0 0 0 3 6 3 3 3 3 3 0 0 0 0 0 0 0 0 0 0 0 0 0 0 0 0 0 0 0 0 0 0 0 0 0
0 0 0 0 0 0 0 0 3 0 0 3 3 3 0 0 0 3 0 0 0 0 0 0 0 0 0 0 0 0 0 0 0 0 0 0 0 0 0 0 0 0 0
0 0 0 0 0 0 0 6 6 6 6 3 0 0 0 0 0 0 0 0 0 0 0 0 0 0 0 0 0 0 0 0 0 0 0 0 0 0 0 0 0 0 0
0 0 0 0 0 0 0 3 3 3 3 0 0 0 0 0 0 0 0 0 0 0 0 0 0 0 0 0 0 0 0 0 0 0 0 0 0 0 0 0 0 0 0
0 0 0 0 0 0 0 0 3 3 3 0 3 0 0 0 0 0 0 0 0 0 0 0 0 0 0 0 0 0 0 0 0 0 0 0 0 0 0 0 0 0 0

GEFSSE_con_cape1000_066.txt.gz
Probability
10 45 100 100 100 100 100 100 100 100 100 100 100 97 97 100 100 94 97 94 97 97 97 100 100 97 100 100 100 100 100 100 100 100 100 100 97 97 94 97 100 100 100
10 65 100 100 100 100 100 100 100 100 100 100 100 97 97 97 100 100 94 94 94 97 97 100 100 100 100 100 100 100 100 100 100 100 100 100 100 100 97 97 97 97 97
16 84 100 100 100 100 100 100 100 100 97 94 94 94 90 94 94 87 90 90 94 94 97 97 100 100 100 100 100 100 100 100 100 100 97 97 100 100 94 100 90 94 97
26 90 100 100 100 100 100 100 100 97 94 94 94 90 87 90 90 84 84 84 84 90 97 97 97 100 100 100 100 100 100 100 100 90 94 97 94 97 97 97 97 87 90
45 90 100 100 100 100 100 100 100 97 94 90 90 81 84 84 84 77 77 84 81 81 77 87 87 87 87 90 90 97 97 100 87 84 81 90 100 100 97 94 90 94 94
58 87 100 100 100 100 100 100 100 97 87 84 84 84 84 84 71 71 68 71 68 71 81 84 87 90 90 84 90 94 94 81 77 84 81 84 97 94 90 90 90 94 94
48 74 100 100 100 100 100 100 100 100 97 90 84 84 81 77 74 71 61 58 58 68 65 77 84 74 81 74 81 84 94 84 77 84 81 90 94 90 90 90 90 90 90
48 61 84 100 100 100 100 100 100 100 97 90 84 74 71 61 55 58 42 48 52 52 55 58 52 52 58 68 74 84 84 74 61 61 81 90 81 81 84 84 84 81 84
32 35 65 94 100 100 100 100 100 100 100 94 90 84 71 58 45 35 32 32 35 32 39 39 52 42 55 55 61 68 81 65 84 71 45 77 81 84 81 81 84 87 87
39 39 32 65 90 97 100 100 100 100 100 100 100 94 87 68 55 42 26 19 16 13 16 23 26 35 39 42 52 58 65 68 65 52 42 71 74 84 84 74 74 84 84
39 35 32 42 65 68 71 94 97 100 100 100 100 100 90 81 45 45 13 10 6 6 6 10 6 26 26 19 42 35 42 68 58 35 52 74 74 84 87 81 81 81 81
45 45 35 35 52 52 61 61 97 94 97 94 97 97 90 65 32 16 3 6 10 3 0 6 6 6 3 3 6 6 29 35 29 16 58 74 74 84 87 81 77 81 81
23 29 29 48 58 65 81 81 87 97 97 90 87 84 84 61 39 16 16 19 16 10 3 10 3 3 0 0 3 3 6 6 6 3 39 65 71 65 84 84 71 74 81
19 19 29 32 39 68 68 77 81 87 90 90 90 68 71 74 58 26 16 10 6 6 3 3 3 0 0 0 0 0 0 0 0 0 61 55 58 58 65 68 77 77 77
6 10 13 19 35 35 48 74 65 74 74 74 87 84 71 81 68 42 19 16 13 6 3 0 0 0 0 0 0 0 0 0 0 0 16 55 61 52 52 61 65 74 77
3 3 3 6 19 32 35 55 65 65 81 81 84 81 65 90 71 61 32 26 16 13 6 3 0 0 0 0 0 0 0 0 0 0 0 19 55 61 61 52 61 65 74
3 6 6 6 6 16 23 29 45 65 65 74 77 71 65 81 68 68 48 35 23 16 3 3 0 0 0 0 0 0 0 0 0 0 0 0 16 42 48 48 52 61 65
0 0 6 3 3 6 13 19 39 35 61 65 65 68 71 71 71 68 68 52 26 23 10 6 3 3 0 0 0 0 0 0 0 0 0 0 0 3 16 48 61 48 52
0 0 0 0 3 6 6 10 23 32 45 61 65 71 68 68 68 77 77 71 26 26 19 3 10 3 0 3 3 0 0 0 0 0 0 0 0 0 0 29 39 52 55
0 0 0 0 0 3 3 3 19 29 42 55 65 65 68 68 61 68 61 61 45 42 35 16 6 26 16 16 0 0 3 3 0 0 0 0 0 0 0 0 0 13 48
0 0 0 0 0 0 3 3 13 19 29 42 48 61 68 68 68 65 58 58 55 45 39 19 26 10 19 10 10 10 3 0 0 0 0 0 0 0 0 0 0 3 26
0 0 0 0 0 0 3 6 10 19 16 29 42 48 55 65 68 58 52 58 61 48 42 35 29 32 23 10 16 29 13 6 3 0 0 0 0 0 0 0 0 0 0
0 0 0 0 0 0 3 3 6 13 23 26 35 35 42 48 52 58 55 52 58 55 45 35 39 26 39 10 10 13 10 16 26 0 0 0 6 6 10 3 0 0 0
0 0 0 0 0 0 3 3 3 13 16 16 23 29 32 39 45 48 55 52 45 42 35 29 26 19 19 26 13 13 6 10 3 3 0 0 0 3 6 0 0 0 0
0 0 0 0 0 3 3 3 3 3 6 16 26 19 29 35 42 39 48 45 42 32 23 26 19 16 10 16 23 16 6 16 0 13 0 3 0 3 3 3 10 6 3
0 0 0 0 0 0 3 0 3 6 10 10 13 19 29 35 39 35 39 48 39 35 23 19 19 19 13 10 13 16 16 16 10 10 3 3 3 0 0 0 6 16 16

GEFSSE_con_cape1000_072.txt.gz
Probability
84 94 100 100 100 100 100 100 97 97 97 97 94 90 87 90 90 90 90 90 97 97 97 97 100 100 100 100 100 100 100 100 100 100 100 100 100 97 97 100 100 100 100
84 90 100 100 100 100 100 100 97 97 97 97 97 87 87 90 97 90 90 90 94 97 97 97 100 100 100 100 97 97 100 100 100 100 100 100 97 100 100 100 100 100 100
94 97 100 100 100 100 100 100 97 94 94 90 94 94 90 90 87 87 84 90 90 94 94 97 97 100 100 100 100 100 97 97 100 100 100 100 97 100 97 97 97 97 97
90 97 100 100 100 100 100 100 97 94 94 90 87 84 87 84 84 81 81 84 84 84 87 94 94 94 97 97 100 97 97 100 100 100 100 100 97 97 100 94 90 97 97
94 100 100 100 100 100 100 100 97 90 90 90 90 84 81 74 81 81 77 81 71 74 81 77 84 87 87 81 87 94 87 94 100 97 100 97 97 97 94 90 94 87 94
100 100 100 100 100 100 100 100 94 87 87 84 81 77 71 77 77 74 74 74 74 68 71 81 81 81 74 77 84 84 90 90 100 81 94 97 94 94 94 90 87 90 94
94 100 100 100 97 97 97 97 94 94 84 81 74 74 74 74 71 71 68 65 58 58 68 71 71 68 58 68 74 87 90 100 90 84 94 94 97 94 90 90 87 87 87
77 87 97 100 100 100 100 100 97 97 94 84 77 74 65 68 68 71 61 55 48 52 55 58 52 42 48 55 52 71 84 94 74 84 97 87 97 94 94 90 87 87 84
52 74 87 90 97 97 100 100 100 97 97 90 90 81 74 68 55 52 48 42 39 39 35 48 39 32 35 45 42 58 77 94 74 71 81 84 97 90 81 81 87 87 87
23 42 58 71 90 94 94 97 100 100 100 100 97 90 87 81 71 68 65 42 32 32 23 23 23 26 29 39 55 58 87 84 42 52 58 84 100 87 84 84 84 81 90
10 16 26 42 48 65 84 87 90 94 97 97 100 100 97 84 55 61 61 71 35 19 16 16 19 26 32 52 71 74 71 29 39 58 52 94 94 81 77 87 84 77 84
13 16 10 23 23 32 58 77 84 81 94 97 97 97 90 71 48 61 68 81 48 19 16 29 32 26 26 3 26 71 3 26 32 45 55 94 94 81 77 81 77 81 81
16 13 13 13 6 16 35 45 71 74 81 94 94 94 87 71 61 29 16 42 19 6 6 10 10 0 0 0 0 0 0 3 6 13 68 97 84 74 77 77 74 77 84
10 13 6 10 13 6 23 29 42 55 61 61 77 61 65 55 45 16 13 10 13 10 3 0 0 0 0 0 0 0 0 0 6 10 32 90 74 68 65 65 74 71 77
0 3 3 3 3 3 13 29 32 42 48 35 52 61 52 58 42 39 16 16 16 13 10 0 0 0 0 0 0 0 0 0 0 3 13 84 74 61 58 55 61 74 77
3 0 3 0 0 0 3 10 16 23 45 45 58 45 45 55 45 45 32 16 6 6 6 3 0 0 0 0 0 0 0 0 0 6 3 32 81 74 71 65 58 71 71
0 0 0 3 0 3 3 13 13 13 13 42 39 32 26 32 45 42 39 16 6 10 6 0 0 0 0 0 0 0 0 0 0 3 10 3 23 71 81 77 58 58 71
0 0 0 0 0 0 0 10 13 16 6 13 35 42 29 35 35 42 45 32 13 13 6 0 0 0 0 0 0 0 0 0 0 0 0 6 0 3 42 77 71 68 71
0 0 0 0 0 0 0 3 6 10 10 13 19 23 32 32 32 39 35 39 16 23 13 6 0 0 0 0 0 0 0 0 0 0 0 0 0 3 3 32 68 68 65
0 0 0 0 0 0 0 3 3 10 13 13 19 26 26 29 29 32 39 35 29 26 13 0 3 6 6 6 0 0 0 0 0 0 0 0 0 0 0 0 6 16 65
0 0 0 0 0 0 0 0 3 10 10 13 19 19 26 29 35 32 32 32 32 26 13 10 0 0 6 3 0 0 0 0 0 0 0 0 0 0 0 0 0 0 6
0 0 0 0 0 0 0 0 6 3 13 13 16 13 19 29 26 29 35 29 32 26 26 10 10 0 3 0 0 0 0 0 0 0 0 0 0 0 0 0 0 0 0
0 0 0 0 0 0 0 0 3 3 16 19 19 16 23 23 32 29 32 35 26 29 19 16 10 3 0 0 0 0 0 0 0 0 0 0 0 0 0 0 0 0 0
0 0 0 0 0 0 0 0 0 3 3 6 6 10 26 26 29 23 35 42 32 23 16 16 13 3 0 0 0 0 0 0 0 0 0 0 0 0 0 0 0 0 0
0 0 0 0 0 0 0 0 0 0 0 3 10 10 10 16 29 29 26 29 29 23 23 16 16 6 3 0 0 0 0 0 0 0 0 0 0 0 0 0 0 0 0
0 0 0 0 0 0 0 0 0 0 0 0 0 3 6 13 16 19 19 16 19 16 19 23 23 10 10 0 0 0 0 0 0 0 0 0 0 0 0 0 0 0 0

GEFSSE_con_cape1000_078.txt.gz
Probability
35 90 100 100 100 100 100 100 97 97 97 97 97 97 94 97 94 94 97 94 97 97 97 100 100 100 100 100 100 100 100 100 100 100 100 97 97 100 100 100 100 100 100
48 100 100 100 100 100 100 100 97 97 97 97 94 90 90 90 97 97 94 94 97 97 97 97 100 100 100 97 97 100 100 97 100 100 97 94 100 100 97 100 100 100 100
81 100 100 100 100 100 100 97 97 97 94 94 94 94 87 90 90 87 84 87 90 90 90 97 97 100 97 100 100 100 97 100 100 100 94 90 90 97 94 97 97 97 97
94 100 100 100 100 100 100 100 100 94 94 94 94 90 90 87 84 84 81 81 87 84 84 87 87 94 90 97 97 94 97 100 100 100 84 87 84 90 94 90 94 97 97
90 97 100 100 100 100 100 100 97 97 97 97 94 90 84 84 81 81 74 77 74 84 81 81 81 84 81 81 84 90 94 100 100 94 61 61 77 90 87 87 87 94 94
90 97 97 97 100 100 100 100 97 97 94 94 90 84 77 77 81 77 74 74 74 68 77 81 81 71 65 74 81 84 97 100 94 71 61 61 74 90 94 90 90 94 94
87 94 97 97 100 100 100 100 100 97 94 90 87 84 77 77 74 77 77 71 74 65 58 68 65 61 48 58 71 87 87 97 71 45 65 68 71 90 87 90 90 87 87
74 77 84 97 97 100 100 100 100 100 97 90 84 84 77 77 81 77 81 84 74 65 55 58 61 55 48 58 68 74 90 87 48 55 58 52 90 94 90 87 87 84 84
48 55 61 77 77 90 94 97 100 100 100 100 94 90 94 87 84 84 90 77 71 61 65 55 52 48 52 65 65 68 87 84 23 32 58 55 97 87 87 84 84 87 90
29 32 42 42 45 45 65 84 94 97 100 100 100 100 97 97 87 90 90 90 77 65 58 58 48 55 61 71 65 65 87 55 13 19 45 71 100 77 81 84 77 84 87
6 3 13 23 32 39 39 61 77 84 87 90 97 97 100 84 65 74 90 90 97 87 71 65 61 58 65 68 74 81 71 0 13 23 39 94 94 84 84 81 84 77 81
3 3 3 3 6 13 32 35 45 65 74 74 81 77 77 61 45 52 55 94 97 97 94 77 68 58 39 6 6 45 16 3 10 13 23 100 94 84 84 84 81 81 87
3 3 3 3 3 3 6 13 13 23 29 55 58 39 39 35 29 42 19 52 84 97 71 61 55 23 6 3 0 0 0 0 3 10 29 100 97 90 84 87 81 81 87
0 0 3 3 3 3 3 6 6 3 10 26 26 23 23 23 19 10 0 3 26 23 13 3 0 0 0 0 0 0 0 0 3 10 10 100 97 94 87 87 87 84 84
0 0 0 3 3 3 3 3 3 3 3 3 3 3 3 10 13 3 3 3 0 6 3 3 0 0 0 0 0 0 0 0 0 3 13 100 97 94 87 81 90 84 84
0 0 0 0 0 0 0 0 0 0 0 0 0 0 0 3 3 6 3 0 0 0 0 0 0 0 0 0 0 0 0 0 0 3 6 65 94 94 90 84 84 81 84
0 0 0 0 0 0 0 0 0 0 0 0 0 0 0 0 0 0 3 0 3 3 0 0 0 0 0 0 0 0 0 0 0 0 6 6 35 87 94 90 87 87 84
0 0 0 0 0 0 0 0 0 0 0 0 0 0 0 3 0 0 0 0 0 0 0 0 0 0 0 0 0 0 0 0 0 0 0 3 3 23 77 94 90 90 90
0 0 0 0 0 0 0 0 0 0 0 0 0 0 0 0 3 3 0 0 0 0 0 0 0 0 0 0 0 0 0 0 0 0 0 0 0 0 10 45 94 90 94
0 0 0 0 0 0 0 0 0 0 0 0 0 0 0 0 3 3 3 6 3 0 0 0 0 0 0 0 0 0 0 0 0 0 0 0 0 0 0 10 26 52 90
0 0 0 0 0 0 0 0 0 0 0 0 0 0 0 0 0 3 6 6 6 3 0 0 0 0 0 0 0 0 0 0 0 0 0 0 0 0 0 0 0 0 13
0 0 0 0 0 0 0 0 0 0 0 0 0 0 0 0 0 6 3 3 6 6 0 0 0 0 0 0 0 0 0 0 0 0 0 0 0 0 0 0 0 0 0
0 0 0 0 0 0 0 0 0 0 0 0 0 0 0 3 3 3 3 0 3 6 3 0 0 0 0 0 0 0 0 0 0 0 0 0 0 0 0 0 0 0 0
0 0 0 0 0 0 0 0 0 0 0 0 0 0 0 0 0 6 3 3 3 3 3 3 0 0 0 0 0 0 0 0 0 0 0 0 0 0 0 0 0 0 0
0 0 0 0 0 0 0 0 0 0 0 0 0 0 0 0 0 3 3 0 0 0 0 3 3 0 0 0 0 0 0 0 0 0 0 0 0 0 0 0 0 0 0
0 0 0 0 0 0 0 0 0 0 0 0 0 0 0 0 0 3 3 3 0 0 0 0 3 0 0 0 0 0 0 0 0 0 0 0 0 0 0 0 0 0 0

GEFSSE_con_cape1000_084.txt.gz
Probability
3 29 100 100 100 100 100 100 97 97 97 97 97 97 97 97 100 100 100 100 100 100 100 100 100 100 100 100 100 100 100 100 100 94 97 97 100 100 100 100 100 100 97
13 81 100 100 100 100 100 100 100 100 97 97 97 97 97 94 100 94 94 97 97 97 97 100 100 100 97 97 97 100 97 97 100 97 97 100 100 100 97 100 100 94 94
65 97 97 100 100 100 100 100 100 97 97 97 94 90 90 90 94 87 84 87 90 90 90 90 94 94 97 100 100 97 97 100 100 97 90 87 90 97 97 97 94 84 87
81 97 97 100 100 100 100 97 97 97 97 97 94 87 90 90 90 84 87 87 90 87 87 90 90 90 90 94 97 94 97 97 100 100 77 77 81 94 90 94 90 87 90
84 97 97 100 100 100 100 100 100 97 97 97 94 97 90 87 87 87 87 84 84 87 84 84 87 84 84 84 87 94 97 100 100 81 61 68 68 87 87 90 90 90 90
68 84 94 100 100 100 100 100 100 100 100 100 97 94 94 94 94 90 84 74 74 74 84 81 81 71 71 74 84 87 97 100 84 48 52 65 71 81 87 87 87 87 87
45 52 65 94 94 97 97 97 100 100 100 100 100 100 97 90 84 87 84 77 77 74 77 71 68 55 55 68 81 87 84 94 29 32 32 55 71 81 84 94 84 81 81
32 35 42 55 71 84 87 90 90 94 97 100 100 100 97 90 84 87 90 94 84 84 74 71 68 58 48 61 74 74 77 84 65 35 42 42 71 84 84 84 84 77 81
19 29 32 35 39 52 55 81 87 90 90 94 94 100 97 97 97 90 94 90 94 94 77 71 71 58 58 61 65 71 77 77 19 23 29 35 81 84 77 84 84 87 87
3 10 6 10 16 23 32 52 61 74 77 84 84 90 94 100 97 97 90 94 90 90 87 84 74 68 61 68 65 61 77 45 13 13 19 32 81 81 74 81 84 84 81
3 3 3 3 3 6 13 29 35 52 58 55 65 84 84 77 71 74 81 100 90 87 94 94 94 81 71 61 61 68 58 3 3 10 13 45 87 84 74 74 74 84 81
0 3 3 3 3 3 6 3 3 13 19 26 39 45 52 52 39 58 55 94 97 97 100 100 100 90 61 10 10 19 0 0 3 6 13 74 84 81 71 74 74 81 84
0 0 0 0 0 3 3 3 3 3 6 6 16 13 23 23 19 39 26 35 48 81 81 87 87 65 13 3 3 0 0 0 0 0 13 74 94 87 84 77 81 81 90
0 0 0 0 0 0 0 0 0 3 3 0 0 6 3 6 13 16 19 10 3 6 6 13 13 13 6 0 0 0 0 0 0 0 6 58 90 87 81 81 81 81 87
0 0 0 0 0 0 0 0 0 0 3 0 0 0 0 0 3 6 6 10 0 0 0 0 3 3 0 0 0 0 0 0 0 0 0 26 84 94 81 81 81 84 81
0 0 0 0 0 0 0 0 0 0 0 0 0 0 0 0 0 0 0 0 0 0 0 0 0 3 0 0 0 0 0 0 0 0 0 6 71 94 90 84 77 81 74
0 0 0 0 0 0 0 0 0 3 0 0 0 0 0 0 0 0 0 0 0 3 0 0 0 0 0 0 0 0 0 0 0 0 0 0 10 68 90 87 87 77 77
0 0 0 0 0 0 0 0 0 0 0 0 0 0 0 0 0 0 0 0 0 0 3 3 0 0 0 0 0 0 0 0 0 0 0 0 6 13 55 87 94 87 77
0 0 0 0 0 0 0 0 0 0 0 0 0 0 0 0 0 0 0 0 0 0 0 3 3 0 0 0 0 0 0 0 0 0 0 0 0 6 6 35 81 90 94
0 0 0 0 0 0 0 0 0 0 0 0 0 0 0 0 0 0 0 0 3 0 0 3 3 0 0 0 0 0 0 0 0 0 0 0 0 0 0 3 29 42 77
0 0 0 0 0 0 0 0 0 0 0 0 0 0 0 0 0 0 0 0 3 3 0 0 0 0 0 0 0 0 0 0 0 0 0 0 0 0 0 0 0 3 16
0 0 0 0 0 0 0 0 0 0 0 0 0 0 0 0 0 3 0 0 0 3 3 0 0 0 0 0 0 0 0 0 0 0 0 0 0 0 0 0 0 0 0
0 0 0 0 0 0 0 0 0 0 0 0 0 0 0 0 0 0 0 0 0 3 3 0 0 0 0 0 0 0 0 0 0 0 0 0 0 0 0 0 0 0 0
0 0 0 0 0 0 0 0 0 0 0 0 0 0 0 0 0 0 0 0 0 0 3 3 0 0 0 0 0 0 0 0 0 0 0 0 0 0 0 0 0 0 0
0 0 0 0 0 0 0 0 0 0 0 0 0 0 0 0 0 0 0 0 0 0 3 3 3 0 0 0 0 0 0 0 0 0 0 0 0 0 0 0 0 0 0
0 0 0 0 0 0 0 0 0 0 0 0 0 0 0 0 0 0 0 0 0 0 3 3 3 0 0 0 0 0 0 0 0 0 0 0 0 0 0 0 0 0 0

GEFSSE_con_cape1000_090.txt.gz
Probability
10 32 97 94 94 97 94 97 94 90 94 94 94 94 94 94 97 100 97 97 100 100 100 100 100 100 100 100 100 100 100 97 94 97 97 100 100 97 94 97 97 97 90
0 23 97 94 97 97 97 94 94 94 90 90 94 94 94 94 97 100 97 94 94 97 97 100 97 97 97 97 97 100 97 97 94 94 94 97 97 97 94 90 94 94 94
19 26 68 94 100 100 97 97 97 97 97 97 97 94 90 90 90 94 87 87 87 94 87 87 90 94 90 97 97 97 97 97 100 100 94 97 97 94 90 90 84 87 90
29 26 55 84 94 97 97 97 97 97 94 97 100 90 87 87 90 90 84 84 84 84 84 87 90 90 87 94 94 97 97 97 100 97 90 71 84 87 84 84 77 87 81
35 52 77 90 94 100 94 94 90 94 97 97 94 97 94 90 90 87 84 84 81 77 84 87 84 81 74 81 90 94 97 97 100 97 90 87 94 90 84 81 77 77 81
39 42 74 87 94 90 87 87 90 97 97 100 100 100 97 97 94 97 97 94 87 87 87 77 71 68 65 68 77 87 94 94 97 90 97 84 94 94 84 74 74 77 77
32 35 48 52 65 71 81 77 81 87 90 90 97 100 100 94 90 97 97 94 90 87 77 71 74 68 55 52 58 77 87 87 90 90 90 81 90 84 81 74 71 74 71
16 10 19 32 29 39 48 61 61 68 71 84 84 90 90 90 97 90 90 94 90 90 84 74 77 65 55 52 52 55 77 77 58 48 71 84 90 77 81 77 74 71 68
10 10 10 10 19 23 29 35 42 48 48 58 74 77 84 87 90 94 90 90 90 97 94 74 74 65 58 55 52 52 74 71 74 68 39 74 84 77 84 77 77 71 74
3 6 6 13 10 13 16 23 26 32 42 48 48 61 71 77 81 87 90 90 87 90 90 90 84 74 58 61 52 58 61 48 65 58 58 61 74 77 71 77 71 71 77
0 0 3 3 6 6 10 6 13 16 23 35 45 48 52 71 68 74 71 77 81 81 90 94 94 87 68 71 58 58 35 42 55 48 48 68 61 71 74 71 71 71 74
0 0 3 3 3 0 0 3 0 3 13 19 35 39 52 58 55 48 32 61 81 87 87 90 90 90 58 52 52 32 29 32 45 42 52 61 71 68 74 77 71 71 74
0 0 0 0 0 3 3 6 3 3 6 13 10 32 42 48 55 48 55 58 68 77 81 87 87 74 52 32 19 10 10 10 13 23 52 58 65 68 65 74 74 71 71
0 0 0 0 0 0 3 3 6 3 6 19 19 6 23 32 45 45 55 55 65 74 77 81 87 48 29 13 16 10 3 6 6 13 58 65 61 65 61 77 77 71 74
0 0 0 0 0 0 3 3 3 6 3 3 13 10 10 19 19 29 45 55 52 65 61 74 55 35 35 13 3 6 0 0 0 0 32 52 48 68 61 61 77 74 77
0 0 0 0 0 0 0 3 3 3 6 0 10 3 0 3 13 19 23 32 39 55 55 58 42 39 42 23 13 10 6 0 0 3 6 45 48 68 74 55 65 77 77
0 0 0 0 0 0 0 0 3 3 3 3 3 6 6 0 6 13 26 26 16 32 35 52 32 45 42 26 13 3 3 3 0 0 0 19 32 42 84 71 74 77 81
0 0 0 0 0 0 0 0 0 0 3 3 10 6 10 6 0 3 16 19 19 29 42 48 55 52 48 45 26 16 3 10 3 0 0 3 23 10 32 90 87 87 81
0 0 0 0 0 0 0 0 0 0 0 0 3 6 10 0 0 3 13 19 19 39 32 16 29 39 32 45 29 26 6 6 13 3 0 3 0 13 6 45 77 87 87
0 0 0 0 0 0 0 0 0 0 0 0 0 10 6 3 6 13 16 16 23 39 42 32 23 35 42 42 6 6 16 13 16 10 3 6 3 0 3 6 32 26 84
0 0 0 0 0 0 0 0 0 0 0 0 0 3 3 3 6 13 23 19 32 35 39 19 29 29 39 26 16 19 16 3 3 19 6 6 0 6 0 0 29 35 55
0 0 0 0 0 0 0 0 0 0 3 0 3 3 0 0 6 6 16 19 29 39 35 39 32 32 32 29 19 16 6 10 10 0 6 10 3 13 3 0 0 23 26
0 0 0 0 0 0 0 0 0 0 0 0 3 3 6 3 6 10 10 10 16 26 35 35 35 32 35 26 26 23 6 0 13 3 0 10 19 16 10 0 0 6 6
0 0 0 0 0 0 0 0 0 0 0 0 0 0 6 6 10 10 10 10 13 19 29 32 26 26 32 29 29 13 3 10 13 10 3 3 6 10 6 0 3 6 6
0 0 0 0 0 0 0 0 0 0 0 6 13 3 6 6 6 3 6 6 16 19 13 19 19 23 35 29 29 13 6 6 0 6 6 10 19 19 10 13 10 19 23
0 0 0 0 0 0 0 0 0 0 0 0 3 0 6 10 10 3 6 10 10 10 13 10 19 23 35 29 29 19 16 3 0 3 3 6 10 16 0 13 19 26 29

GEFSSE_con_cape1000_096.txt.gz
Probability
77 65 87 84 77 84 90 90 87 84 84 87 87 90 97 97 94 94 94 94 94 97 97 97 97 97 97 94 97 97 100 97 97 97 97 97 94 90 87 97 97 90 87
65 68 84 87 84 90 87 87 87 87 84 81 84 87 90 90 97 90 90 84 84 84 90 90 87 94 94 94 97 97 97 94 90 97 94 100 97 87 87 90 94 90 84
61 65 81 90 81 74 87 84 84 87 87 94 87 87 87 84 87 87 84 81 81 81 77 84 87 87 90 90 90 97 97 97 97 100 100 100 100 90 90 87 87 90 87
61 81 77 81 84 77 81 81 77 84 84 90 87 90 94 90 87 84 84 84 84 87 81 84 87 84 81 84 90 90 94 97 100 100 100 100 97 94 90 81 84 84 77
45 71 84 84 87 77 65 58 68 68 71 77 84 90 87 94 90 87 87 84 84 87 77 71 74 71 65 68 77 87 94 94 100 100 100 97 90 90 84 74 81 77 84
29 35 52 71 74 74 74 68 61 65 65 68 71 74 81 74 77 84 87 90 90 87 81 74 68 65 65 61 61 58 90 94 94 94 94 97 90 94 84 71 71 71 74
23 26 23 35 48 45 45 52 55 55 55 65 65 71 71 71 77 77 84 87 90 90 84 84 74 68 55 48 55 55 71 84 87 74 81 94 90 90 74 71 68 74 71
13 19 19 26 26 26 32 35 35 35 42 52 55 61 58 65 71 74 81 81 77 81 84 84 84 77 58 52 48 55 61 71 71 68 74 87 97 90 74 71 68 68 65
6 10 10 16 19 19 23 23 16 23 29 35 39 45 55 55 61 68 77 77 81 81 87 94 84 84 77 65 61 48 58 84 65 58 65 81 97 84 74 71 71 65 68
0 0 3 3 3 6 13 13 13 16 23 23 29 48 45 48 52 61 74 84 87 84 87 87 84 84 90 81 74 74 81 74 19 26 61 81 97 81 71 65 68 58 61
0 0 0 0 3 3 3 3 6 13 16 19 19 32 42 39 32 45 61 74 74 81 90 90 87 90 94 97 94 94 84 19 13 39 58 87 97 81 68 68 68 68 58
0 0 0 0 0 0 0 3 3 3 6 3 10 16 26 29 32 26 35 55 55 68 81 94 90 90 87 35 77 97 42 6 13 35 65 97 94 81 74 71 71 68 65
0 0 0 0 0 0 0 3 3 3 6 3 6 10 10 23 26 23 19 39 48 55 45 74 84 58 29 16 19 35 10 0 3 19 74 100 97 84 74 71 71 68 74
0 0 0 0 0 0 0 0 6 3 3 6 6 6 6 16 23 16 13 13 26 23 23 35 42 26 13 10 16 10 6 6 16 32 65 97 97 90 81 77 68 71 74
0 0 0 0 0 0 0 3 0 3 3 3 10 6 3 13 13 10 6 0 6 19 19 13 13 6 10 10 6 0 0 0 6 23 58 97 97 97 90 77 77 71 74
0 0 0 0 0 0 0 0 0 3 3 3 6 3 3 6 10 3 13 13 3 10 13 13 13 3 0 6 6 0 0 0 3 6 10 90 100 100 97 87 84 84 74
0 0 0 0 0 0 0 0 0 0 3 3 6 3 6 3 3 3 0 6 3 3 6 10 10 10 3 0 3 0 0 0 0 6 10 3 48 94 97 97 90 87 87
0 0 0 0 0 0 0 0 0 0 0 3 3 3 3 3 3 3 6 6 3 0 6 10 6 6 0 3 3 0 0 0 0 0 10 10 0 3 81 97 100 94 87
0 0 0 0 0 0 0 0 0 0 0 0 0 0 0 0 0 0 6 3 3 3 0 0 3 6 0 0 3 3 0 0 0 0 0 0 0 3 3 58 94 94 97
0 0 0 0 0 0 0 0 0 0 0 0 0 0 0 0 0 3 3 3 6 3 3 0 0 3 3 0 0 0 0 0 0 0 0 0 0 3 3 3 26 55 90
0 0 0 0 0 0 0 0 0 0 0 0 0 0 0 0 3 6 3 3 3 3 0 0 0 6 3 0 0 0 0 0 0 0 0 0 0 0 0 3 3 0 23
0 0 0 0 0 0 0 0 0 0 0 0 0 0 0 0 3 3 3 3 3 10 6 6 3 3 6 3 0 0 0 0 0 0 0 3 0 0 0 0 0 0 0
0 0 0 0 0 0 0 0 0 0 0 0 0 0 0 0 3 6 6 6 6 6 6 3 6 6 0 0 0 0 0 0 0 0 0 0 0 0 0 0 0 3 0
0 0 0 0 0 0 0 0 0 0 0 0 0 0 0 3 3 6 6 6 6 6 13 10 10 3 3 0 0 0 0 0 0 0 0 0 0 0 0 0 0 0 0
0 0 0 0 0 0 0 0 0 0 0 0 0 0 0 0 3 3 3 6 6 6 10 10 6 3 0 0 0 0 0 0 0 0 0 0 0 0 0 0 0 3 3
0 0 0 0 0 0 0 0 0 0 0 0 0 0 0 0 0 3 3 0 0 3 3 6 6 3 3 0 0 0 0 0 0 0 0 0 0 0 0 0 0 0 0

GEFSSE_con_cape1000_102.txt.gz
Probability
39 65 90 94 87 87 94 90 87 87 84 87 90 87 90 94 94 94 87 90 100 97 94 90 90 94 94 94 94 97 97 94 97 97 100 100 94 90 94 94 94 90 87
42 71 90 94 87 90 94 94 97 97 97 94 90 87 90 87 84 77 77 77 81 84 81 84 87 94 90 90 90 94 90 87 94 100 100 100 94 87 87 90 87 87 87
52 74 84 90 90 94 94 90 90 97 97 94 94 90 94 90 87 81 74 74 74 77 84 84 87 90 81 87 90 90 90 90 94 97 100 90 84 87 81 84 87 87 87
55 77 81 90 87 87 84 81 71 84 87 90 94 90 84 84 84 87 84 77 77 74 71 71 71 68 68 71 84 84 90 94 94 97 81 87 71 87 81 77 77 84 84
45 65 87 84 87 81 71 71 77 74 77 74 81 84 77 77 77 77 81 87 90 87 81 71 68 61 58 61 65 74 84 84 94 84 61 48 52 87 81 81 81 74 87
35 45 65 71 68 68 65 71 65 68 71 71 77 74 77 84 84 77 81 84 90 94 90 81 84 65 61 55 48 48 61 77 90 61 52 45 52 84 74 77 81 81 84
26 32 42 48 45 48 55 61 61 61 65 65 71 68 74 65 74 81 81 84 90 87 94 90 84 74 61 61 58 52 58 71 45 32 45 45 68 90 71 81 74 74 74
13 19 23 35 32 32 32 42 42 42 42 48 48 55 58 52 61 68 77 84 81 87 81 90 94 84 84 71 68 71 61 71 42 26 42 45 81 94 77 77 84 74 77
10 10 10 13 23 29 32 26 26 32 29 32 35 45 52 55 52 65 65 65 77 87 87 84 94 97 94 87 84 71 71 84 42 10 35 42 97 94 81 84 81 74 74
3 3 6 6 6 6 10 13 13 16 19 29 29 35 35 45 48 45 48 61 71 74 84 84 90 94 94 90 90 84 90 77 29 3 10 52 100 90 87 84 81 71 71
0 0 0 0 0 0 3 6 6 10 6 10 6 16 23 16 16 26 35 58 61 71 81 90 87 90 94 94 94 94 84 52 6 3 10 71 100 87 87 77 77 71 71
0 0 0 0 0 0 0 0 3 3 3 3 3 3 3 6 3 13 16 45 42 52 68 81 94 94 84 61 65 87 65 19 3 0 10 87 97 94 87 87 77 68 71
0 0 0 0 0 0 0 0 0 0 0 0 0 0 0 0 0 3 0 6 16 23 26 42 55 42 42 26 16 13 10 3 0 0 3 94 97 94 90 90 90 74 81
0 0 0 0 0 0 0 0 0 0 0 0 0 0 0 0 0 0 0 0 0 6 10 10 13 10 13 3 0 0 0 3 0 0 3 94 100 97 94 90 90 84 77
0 0 0 0 0 0 0 0 0 0 0 0 0 0 0 0 0 0 0 0 0 0 0 0 0 3 0 0 0 0 0 0 0 0 3 94 100 100 94 90 97 87 90
0 0 0 0 0 0 0 0 0 0 0 0 0 0 0 0 0 0 0 0 0 0 0 0 0 0 0 0 0 0 0 0 0 0 0 52 100 100 100 100 90 97 90
0 0 0 0 0 0 0 0 0 0 0 0 0 0 0 0 0 0 0 0 0 0 0 0 0 0 0 0 0 0 0 0 0 0 0 6 48 94 100 100 100 97 94
0 0 0 0 0 0 0 0 0 0 0 0 0 0 0 0 0 0 0 0 0 0 0 0 0 0 0 0 0 0 0 0 0 0 0 0 3 26 77 97 100 100 97
0 0 0 0 0 0 0 0 0 0 0 0 0 0 0 0 0 0 0 0 0 0 0 0 0 0 0 0 0 0 0 0 0 0 0 0 0 0 10 58 97 100 100
0 0 0 0 0 0 0 0 0 0 0 0 0 0 0 0 0 0 0 0 0 0 0 0 0 0 0 0 0 0 0 0 0 0 0 0 0 0 0 6 52 68 94
0 0 0 0 0 0 0 0 0 0 0 0 0 0 0 0 0 0 0 0 0 3 0 0 0 0 0 0 0 0 0 0 0 0 0 0 0 0 0 0 10 16 45
0 0 0 0 0 0 0 0 0 0 0 0 0 0 0 0 0 0 0 0 0 0 0 0 0 0 0 0 0 0 0 0 0 0 0 0 0 0 0 0 0 0 6
0 0 0 0 0 0 0 0 0 0 0 0 0 0 0 0 0 0 0 0 0 0 0 0 0 0 0 0 0 0 0 0 0 0 0 0 0 0 0 0 0 0 0
0 0 0 0 0 0 0 0 0 0 0 0 0 0 0 0 0 0 0 0 0 0 0 0 0 0 0 0 0 0 0 0 0 0 0 0 0 0 0 0 0 0 0
0 0 0 0 0 0 0 0 0 0 0 0 0 0 0 0 0 0 0 0 0 0 0 0 0 0 0 0 0 0 0 0 0 0 0 0 0 0 0 0 0 0 0
0 0 0 0 0 0 0 0 0 0 0 0 0 0 0 0 0 0 0 0 0 0 0 0 0 0 0 0 0 0 0 0 0 0 0 0 0 0 0 0 0 0 0

GEFSSE_con_cape1000_108.txt.gz
Probability
0 19 74 74 74 77 81 81 90 87 87 90 87 90 90 90 87 90 97 94 97 90 94 94 94 94 94 90 94 90 94 94 94 97 97 100 87 87 90 87 87 84 74
6 32 74 74 74 74 81 77 74 77 87 84 84 87 87 87 87 87 84 81 94 87 81 84 84 84 87 87 87 84 87 87 90 97 97 97 94 87 87 87 87 84 84
29 52 65 68 68 74 77 77 81 81 84 84 84 84 84 87 84 84 81 77 77 81 77 77 81 74 81 87 84 84 87 87 90 97 94 81 71 81 81 81 84 84 84
42 48 55 65 68 77 74 68 71 74 74 77 84 84 81 81 77 77 81 77 84 90 84 81 81 77 71 74 77 77 81 90 90 94 61 71 61 81 81 74 77 81 87
29 39 48 55 61 61 58 58 58 65 68 68 71 74 81 74 74 81 87 87 90 94 87 84 84 71 68 65 68 74 81 84 84 65 45 35 39 77 81 74 81 81 87
23 23 32 42 42 48 48 52 52 48 58 58 68 68 71 74 74 77 84 84 81 94 90 84 87 81 81 71 58 55 65 77 58 23 23 32 32 74 81 81 77 74 81
19 19 26 39 32 32 35 32 32 32 35 45 55 58 61 65 61 68 68 74 77 84 87 100 94 87 87 90 77 65 61 68 23 16 13 16 35 81 77 74 68 81 81
6 10 13 26 32 29 26 26 26 26 26 29 35 39 52 48 52 58 61 61 74 84 87 87 97 94 90 84 81 77 68 65 39 13 13 13 52 87 81 77 81 77 84
6 6 6 6 10 16 19 16 13 19 19 16 16 23 29 35 39 42 42 61 71 77 81 77 87 94 84 87 77 81 77 81 23 10 13 13 55 84 81 84 81 84 77
3 6 6 6 3 3 3 6 6 10 13 13 16 19 19 29 29 32 39 45 48 61 71 68 81 84 81 87 84 81 74 77 26 6 3 13 65 84 84 84 87 81 77
0 0 0 0 0 0 0 0 0 3 3 3 3 3 10 3 0 3 13 35 39 45 48 55 58 71 84 87 87 90 87 52 19 6 3 26 71 84 84 84 81 77 77
0 0 0 0 0 0 0 0 0 0 0 0 0 0 0 0 0 3 3 10 19 23 39 39 48 48 48 35 48 58 48 19 6 6 3 48 74 87 84 84 71 74 74
0 0 0 0 0 0 0 0 0 0 0 0 0 0 0 0 0 0 0 0 3 6 6 13 13 19 19 23 19 13 16 10 6 6 6 48 81 90 84 90 77 74 74
0 0 0 0 0 0 0 0 0 0 0 0 0 0 0 0 0 0 0 0 3 3 3 3 0 3 10 10 13 3 0 6 0 0 3 26 77 87 87 90 81 87 81
0 0 0 0 0 0 0 0 0 0 0 0 0 0 0 0 0 0 0 0 0 0 3 0 0 3 0 6 6 6 0 0 0 0 3 13 81 94 94 90 94 90 84
0 0 0 0 0 0 0 0 0 0 0 0 0 0 0 0 0 0 0 0 0 0 0 0 0 0 0 3 6 3 3 0 0 0 0 3 55 90 90 97 94 84 84
0 0 0 0 0 0 0 0 0 0 0 0 0 0 0 0 0 0 0 0 0 0 0 0 0 0 0 0 0 0 0 0 0 0 0 3 10 68 94 94 94 87 87
0 0 0 0 0 0 0 0 0 0 0 0 0 0 0 0 0 0 0 0 0 0 0 0 0 0 0 0 0 0 0 0 0 0 0 0 3 10 65 84 94 94 90
0 0 0 0 0 0 0 0 0 0 0 0 0 0 0 0 0 0 0 0 0 0 0 0 0 0 0 0 0 0 0 0 0 0 0 0 0 0 3 39 68 84 94
0 0 0 0 0 0 0 0 0 0 0 0 0 0 0 0 0 0 0 0 0 0 0 0 0 0 0 0 0 0 0 0 0 0 0 0 0 0 0 6 35 42 65
0 0 0 0 0 0 0 0 0 0 0 0 0 0 0 0 0 0 0 0 0 0 0 0 0 0 0 0 0 0 0 0 0 0 0 0 0 0 0 0 3 10 23
0 0 0 0 0 0 0 0 0 0 0 0 0 0 0 0 0 0 0 0 0 0 0 0 0 0 0 0 0 0 0 0 0 0 0 0 0 0 0 0 0 0 0
0 0 0 0 0 0 0 0 0 0 0 0 0 0 0 0 0 0 0 0 0 0 0 0 0 0 0 0 0 0 0 0 0 0 0 0 0 0 0 0 0 0 0
0 0 0 0 0 0 0 0 0 0 0 0 0 0 0 0 0 0 0 0 0 0 0 0 0 0 0 0 0 0 0 0 0 0 0 0 0 0 0 0 0 0 0
0 0 0 0 0 0 0 0 0 0 0 0 0 0 0 0 0 0 0 0 0 0 0 0 0 0 0 0 0 0 0 0 0 0 0 0 0 0 0 0 0 0 0
0 0 0 0 0 0 0 0 0 0 0 0 0 0 0 0 0 0 0 0 0 0 0 0 0 0 0 0 0 0 0 0 0 0 0 0 0 0 0 0 0 0 0

GEFSSE_con_cape1000_114.txt.gz
Probability
13 19 71 68 65 61 71 77 84 77 84 87 87 87 87 87 87 81 81 87 87 94 87 90 90 87 84 87 87 90 90 94 94 97 94 84 81 81 74 77 71 77 81
6 23 58 55 58 58 58 68 61 65 71 74 81 84 84 84 81 81 81 77 77 81 90 87 84 84 84 81 84 81 87 90 94 97 94 90 87 81 77 81 81 81 71
16 23 32 58 55 45 48 48 58 58 65 74 81 81 77 77 81 77 81 77 84 84 87 81 71 77 77 84 81 77 77 87 90 94 90 90 87 84 77 84 81 74 71
19 26 32 58 58 52 42 39 39 48 48 58 74 74 74 74 71 71 71 74 77 81 84 84 84 77 77 77 84 77 74 84 84 87 81 74 74 77 74 74 71 74 74
23 23 29 42 35 35 35 39 42 42 32 42 45 65 61 65 68 71 74 68 74 74 81 87 87 90 87 71 77 74 74 71 77 71 81 84 90 81 71 77 77 68 71
19 13 16 26 29 26 26 29 32 32 32 35 35 45 48 55 55 52 61 68 74 74 74 84 87 84 84 74 74 61 77 71 71 77 74 84 87 84 81 77 74 74 68
6 6 6 23 26 26 26 23 23 23 23 26 19 23 32 29 45 45 52 48 55 61 61 74 81 77 77 81 71 71 65 68 68 61 61 74 87 81 77 71 81 77 74
3 6 10 19 29 23 19 19 19 19 16 13 10 16 19 23 29 29 35 45 55 48 55 58 58 71 74 74 71 77 58 65 29 19 55 61 74 74 77 74 68 77 74
0 0 3 6 6 13 16 6 10 6 13 6 10 13 13 16 13 16 32 32 45 58 58 55 58 61 71 71 65 71 71 68 48 48 23 52 68 68 77 77 65 74 81
0 3 6 6 3 3 3 3 3 6 6 3 0 3 6 6 6 10 16 16 29 29 45 52 55 55 58 58 65 65 71 58 26 35 39 52 58 71 68 74 74 74 81
3 3 3 3 3 3 3 0 3 3 3 3 3 3 3 3 0 3 3 3 3 13 23 35 39 32 42 45 52 55 58 45 26 32 32 52 52 61 74 77 81 68 74
0 3 3 3 3 0 0 0 0 0 3 3 3 3 3 3 6 3 3 3 3 3 13 23 23 23 23 26 39 39 42 39 32 26 32 52 48 61 77 77 71 68 68
3 3 0 0 0 0 0 0 0 0 0 0 0 3 3 3 3 6 3 3 0 3 6 10 19 16 19 26 35 26 29 26 39 23 23 32 48 58 77 74 65 71 68
0 0 0 0 0 0 0 0 0 0 0 0 0 0 0 0 3 3 3 3 3 0 6 13 19 13 10 13 16 13 16 39 39 23 35 35 48 65 84 74 77 77 71
0 0 0 0 0 0 0 0 0 0 0 0 0 0 0 0 3 3 3 3 3 3 6 3 6 6 6 13 23 10 13 26 29 13 26 42 45 65 77 68 77 84 74
0 0 0 0 0 0 0 0 0 0 0 0 0 0 0 0 3 3 3 3 3 0 6 0 0 10 10 19 19 19 19 19 19 19 19 39 52 58 65 65 74 81 77
0 0 0 0 0 0 0 0 0 0 0 0 0 0 0 0 0 3 3 3 3 6 6 6 6 6 6 6 13 13 16 19 19 10 16 32 45 48 68 74 77 77 81
0 0 0 0 0 0 0 0 0 0 0 0 0 0 0 0 0 0 3 3 3 3 6 3 6 10 6 6 16 13 13 23 19 13 16 19 42 32 58 81 81 77 77
0 0 0 0 0 0 0 0 0 0 0 0 0 0 0 0 0 0 0 0 0 0 0 3 3 3 6 3 6 16 10 19 16 10 13 16 26 42 52 55 65 68 74
0 0 0 0 0 0 0 0 0 0 0 0 0 0 3 0 0 0 0 0 0 0 3 3 3 10 13 16 0 0 16 16 16 13 16 16 26 29 32 26 48 55 68
0 0 0 0 0 0 0 0 0 0 0 0 0 0 0 0 0 0 3 0 3 3 6 0 3 10 6 13 10 6 10 10 6 19 19 23 19 29 32 32 39 35 58
0 0 0 0 0 0 0 0 0 0 0 0 0 0 0 0 3 0 6 3 3 3 3 0 3 10 6 6 6 6 3 6 10 0 10 19 10 29 23 16 19 23 26
0 0 0 0 0 0 0 0 0 0 0 0 0 0 0 3 3 10 6 3 3 3 3 0 3 3 6 0 6 3 3 6 13 3 0 6 13 19 19 16 16 10 13
0 0 0 0 0 0 0 0 0 0 0 0 0 0 0 3 6 10 10 3 3 3 3 3 0 3 0 10 3 0 0 3 3 0 0 3 13 13 13 3 10 16 13
0 0 0 0 0 0 0 0 0 0 0 0 0 0 0 0 0 3 3 3 3 0 0 0 0 3 6 3 10 10 0 6 0 3 0 3 6 10 13 10 26 32 19
0 0 0 0 0 0 0 0 0 0 0 0 0 0 3 3 3 0 3 3 3 0 0 0 0 3 0 3 3 13 10 6 3 3 0 3 3 3 3 6 13 26 16

GEFSSE_con_cape1000_120.txt.gz
Probability
32 32 81 71 61 55 61 68 65 65 61 58 68 77 81 77 77 77 77 81 84 87 84 94 84 81 84 84 84 81 84 94 97 87 94 84 81 81 81 81 94 90 71
29 39 74 68 58 61 55 58 52 61 58 58 58 65 71 71 65 71 77 84 81 90 84 77 77 77 84 87 87 81 81 84 84 90 90 90 90 81 81 77 90 87 77
26 35 58 65 55 48 48 48 42 39 45 48 48 52 55 65 68 61 58 74 77 74 84 71 71 77 87 87 87 87 71 81 84 84 94 90 94 84 81 77 84 68 71
26 26 39 55 55 55 42 29 32 35 32 32 42 45 48 52 55 55 55 68 71 71 68 77 74 71 74 81 87 81 77 71 81 84 81 90 87 94 81 81 68 61 58
26 32 45 52 45 39 29 26 26 16 19 23 26 23 29 42 48 48 48 52 61 68 61 74 71 71 74 71 74 68 71 87 84 87 61 68 74 84 81 84 74 68 58
23 26 29 35 32 23 16 16 16 19 19 16 16 19 19 19 35 29 39 39 45 48 58 65 68 74 71 68 71 68 61 71 81 58 71 74 84 87 77 81 81 71 65
16 16 10 29 26 19 19 16 13 16 16 13 13 13 10 10 16 23 29 39 39 48 55 55 65 71 74 65 68 65 68 68 68 42 52 68 90 90 71 65 71 81 65
10 10 10 32 19 16 13 6 10 13 10 6 13 16 13 10 10 16 16 29 32 32 48 55 58 52 52 61 55 61 71 71 42 29 52 68 90 81 65 55 65 68 74
6 6 6 13 16 19 10 6 3 6 3 0 6 10 10 13 13 10 13 13 19 29 29 45 45 52 48 52 58 68 71 74 55 23 35 65 94 81 71 55 58 68 74
3 3 6 6 6 3 3 3 3 6 3 3 3 3 3 3 13 10 10 10 16 10 13 23 23 39 39 55 55 65 68 68 35 16 26 68 94 77 65 61 68 68 61
3 0 0 0 0 6 6 3 3 3 3 3 3 10 6 3 6 10 6 6 10 6 10 13 23 29 35 45 61 65 61 35 13 10 23 84 87 74 68 61 68 68 65
0 0 0 0 0 0 0 0 3 3 3 3 3 3 3 3 3 3 6 10 10 6 13 16 16 23 26 16 39 58 32 19 6 19 39 87 81 77 68 55 68 71 71
0 0 0 0 0 0 0 0 0 0 0 0 0 0 0 0 0 3 3 3 3 3 6 6 13 3 3 3 19 23 19 13 10 10 45 81 71 74 61 68 74 74 74
0 0 0 0 0 0 0 0 0 0 0 0 0 0 0 0 0 0 0 6 3 3 3 3 6 3 3 3 3 10 13 16 16 13 16 71 65 71 61 61 81 74 68
0 0 0 0 0 0 0 0 0 0 0 0 0 0 0 0 0 0 3 3 3 3 3 0 0 3 6 3 3 6 10 13 16 13 13 68 71 65 68 68 81 77 74
0 0 0 0 0 0 0 0 0 0 0 0 0 0 0 0 0 0 3 3 3 3 0 0 0 0 6 3 3 6 13 10 10 13 10 39 74 77 71 65 74 87 77
0 0 0 0 0 0 0 0 0 0 0 0 0 0 0 0 0 0 0 0 3 3 0 0 0 3 0 3 3 10 6 6 6 6 10 10 19 71 81 84 77 87 87
0 0 0 0 0 0 0 0 0 0 0 0 0 0 0 0 0 0 0 0 0 3 0 0 0 0 0 0 0 0 6 6 10 0 3 13 6 10 45 74 87 94 77
0 0 0 0 0 0 0 0 0 0 0 0 0 0 0 0 0 0 0 0 0 3 3 0 0 0 0 0 0 0 6 6 3 0 0 6 6 10 6 35 71 77 77
0 0 0 0 0 0 0 0 0 0 0 0 0 0 0 0 0 0 0 0 0 3 3 0 0 0 0 0 0 0 0 3 6 6 6 3 3 13 13 3 19 39 77
0 0 0 0 0 0 0 0 0 0 0 0 0 0 0 3 3 3 3 0 0 3 3 0 0 0 0 0 0 0 0 3 3 3 0 0 0 6 10 6 0 3 29
0 0 0 0 0 0 0 0 0 0 0 0 0 0 0 0 3 6 6 6 0 3 0 0 0 0 0 0 3 0 0 0 0 3 3 3 0 6 10 10 3 6 6
0 0 0 0 0 0 0 0 0 0 0 0 0 0 0 0 3 3 3 0 6 3 3 0 0 0 0 0 3 0 0 0 0 0 0 0 0 0 3 3 3 6 3
0 0 0 0 0 0 0 0 0 0 0 0 0 0 0 0 0 0 3 3 0 6 3 0 0 0 0 3 3 0 0 0 0 0 0 0 0 0 0 0 0 0 0
0 0 0 0 0 0 0 0 0 0 0 0 0 0 0 0 0 0 3 3 0 6 6 3 0 0 0 0 0 0 0 0 0 0 0 0 0 0 0 0 0 0 0
0 0 0 0 0 0 0 0 0 0 0 0 0 0 0 0 0 0 0 3 3 3 0 0 0 0 0 3 0 0 0 0 0 0 0 0 0 0 0 0 0 0 0

GEFSSE_con_cape1000_126.txt.gz
Probability
19 32 74 74 74 74 71 68 68 65 74 74 71 74 71 71 77 77 87 90 87 90 87 90 84 81 81 74 77 81 84 87 77 84 77 84 81 77 77 87 71 68 45
16 45 71 71 74 68 71 68 65 65 61 61 61 68 68 68 68 74 81 84 81 81 77 81 77 74 71 81 77 74 71 71 81 81 81 81 81 81 77 77 71 58 55
23 58 65 71 65 55 55 58 58 52 52 52 52 58 58 65 58 58 65 71 68 65 68 74 74 81 74 74 77 71 77 68 68 68 74 58 74 81 74 68 68 65 58
23 39 45 61 61 55 48 45 45 48 45 48 45 45 42 48 48 52 52 58 65 71 68 65 74 71 74 77 81 68 68 74 74 68 42 58 58 77 77 71 61 55 68
26 42 52 65 52 48 45 39 35 35 29 29 29 29 32 32 39 45 52 52 55 61 61 61 58 68 74 81 71 61 61 61 71 55 29 19 26 77 77 74 74 68 68
19 23 48 48 48 42 32 32 26 19 16 26 23 23 23 26 26 29 42 39 42 45 48 58 65 68 65 71 74 68 61 58 65 29 16 16 29 84 84 77 77 74 68
13 13 42 45 29 32 23 23 13 13 13 13 13 16 16 19 23 26 26 26 32 39 48 48 58 58 61 65 65 71 61 61 42 23 19 16 32 90 84 81 74 68 71
6 10 29 32 35 32 23 10 13 13 10 10 10 6 6 13 13 16 23 29 29 32 29 35 52 58 48 61 65 58 65 65 39 26 16 16 65 94 81 71 74 65 65
6 6 16 19 19 29 23 16 10 10 3 3 3 3 16 10 6 6 13 19 16 23 29 29 39 55 58 55 55 61 68 74 32 10 16 13 77 90 77 77 71 68 68
3 3 6 13 13 10 10 16 10 6 3 3 3 3 6 10 0 3 10 19 13 26 23 35 35 45 48 48 48 58 68 61 35 13 13 29 90 87 87 84 81 81 77
0 0 0 3 3 3 3 6 6 6 3 3 3 6 6 0 0 0 0 10 6 13 23 26 19 19 19 35 48 52 39 32 23 6 6 58 84 84 84 81 87 87 84
0 0 0 3 3 0 0 0 0 0 0 0 3 0 0 0 0 0 0 6 10 13 16 16 19 13 16 10 10 29 23 23 10 3 3 61 74 84 77 74 81 87 77
0 0 0 0 0 0 0 0 0 0 0 0 0 0 0 0 0 0 0 0 0 3 6 3 6 0 3 0 0 3 13 16 10 3 3 58 77 77 84 77 77 87 87
0 0 0 0 0 0 0 0 0 0 0 0 0 0 0 0 0 0 0 0 0 0 0 0 0 0 0 0 0 0 0 6 3 6 3 58 74 77 81 84 77 90 90
0 0 0 0 0 0 0 0 0 0 0 0 0 0 0 0 0 0 0 0 0 0 0 0 0 0 0 0 0 0 0 0 3 6 6 42 68 68 71 71 74 84 87
0 0 0 0 0 0 0 0 0 0 0 0 0 0 0 0 0 0 0 0 0 0 0 0 0 0 0 0 0 0 0 0 0 3 3 23 45 52 77 68 77 74 77
0 0 0 0 0 0 0 0 0 0 0 0 0 0 0 0 0 0 0 0 0 0 0 0 0 0 0 0 0 0 0 0 0 3 3 3 10 45 65 77 81 84 77
0 0 0 0 0 0 0 0 0 0 0 0 0 0 0 0 0 0 0 0 0 0 0 0 0 0 0 0 0 0 0 0 0 0 3 6 3 10 32 65 84 90 87
0 0 0 0 0 0 0 0 0 0 0 0 0 0 0 0 0 0 0 0 0 0 0 0 0 0 0 0 0 0 0 0 0 0 0 0 0 6 6 19 65 81 87
0 0 0 0 0 0 0 0 0 0 0 0 0 0 0 0 0 0 0 0 0 0 0 0 0 0 0 0 0 0 0 0 0 0 0 0 0 0 6 10 19 42 68
0 0 0 0 0 0 0 0 0 0 0 0 0 0 0 0 0 0 0 0 0 0 0 0 0 0 0 0 0 0 0 0 0 0 0 0 0 0 0 0 3 3 23
0 0 0 0 0 0 0 0 0 0 0 0 0 0 0 0 0 0 0 0 0 0 0 0 0 0 0 0 0 0 0 0 0 0 0 0 0 0 0 0 3 3 3
0 0 0 0 0 0 0 0 0 0 0 0 0 0 0 0 0 0 0 0 0 0 0 0 0 0 0 0 0 0 0 0 0 0 0 0 0 0 0 3 3 3 3
0 0 0 0 0 0 0 0 0 0 0 0 0 0 0 0 0 0 0 0 0 0 0 0 0 0 0 0 0 0 0 0 0 0 0 0 0 0 0 0 0 3 0
0 0 0 0 0 0 0 0 0 0 0 0 0 0 0 0 0 0 0 0 0 0 0 0 0 0 0 0 0 0 0 0 0 0 0 0 0 0 0 0 0 0 0
0 0 0 0 0 0 0 0 0 0 0 0 0 0 0 0 0 0 0 0 0 0 0 0 0 0 0 0 0 0 0 0 0 0 0 0 0 0 0 0 0 0 0

GEFSSE_con_cape1000_132.txt.gz
Probability
0 10 61 61 61 65 65 61 61 65 65 65 68 65 65 74 74 74 81 74 74 74 77 81 81 77 81 77 74 84 77 74 68 74 77 77 77 81 94 81 71 65 55
6 26 65 65 55 65 61 61 58 52 55 55 58 58 58 68 71 74 74 71 74 65 77 81 81 84 81 77 74 74 81 74 68 71 74 77 77 90 74 68 71 58 58
19 45 61 68 58 55 52 45 42 45 55 58 58 65 65 61 65 65 68 71 65 65 71 74 81 77 84 87 81 77 81 74 74 74 65 42 48 77 77 74 71 71 55
29 35 48 65 61 58 58 52 45 45 45 48 45 42 42 45 52 55 65 71 65 61 58 61 71 71 84 84 81 74 71 77 71 71 35 32 35 68 74 77 68 65 55
26 29 45 61 55 52 48 45 39 39 42 42 35 32 32 32 32 39 48 55 58 55 58 58 61 68 81 81 77 74 68 71 68 39 23 16 16 65 77 71 77 71 65
16 26 35 55 42 35 35 29 26 32 26 29 29 29 26 26 26 32 35 35 39 42 48 58 65 61 65 68 77 74 65 65 52 23 19 10 23 61 81 81 74 71 61
16 23 35 42 35 32 35 29 26 19 26 13 13 10 13 19 26 29 29 29 32 35 39 45 58 61 55 58 65 77 74 71 39 19 13 13 23 68 77 81 68 77 61
10 16 23 35 32 29 26 23 16 10 6 10 6 6 10 16 19 16 19 19 23 26 23 39 42 39 55 65 65 68 68 74 35 26 13 10 42 71 81 77 71 71 71
10 13 16 16 16 23 23 16 16 10 10 10 0 3 6 3 3 3 3 6 10 6 23 26 32 39 45 58 52 58 58 68 35 16 10 10 48 77 77 71 74 74 71
3 3 6 10 10 6 13 19 16 10 3 0 0 0 0 0 0 0 3 3 6 10 16 26 29 29 32 39 42 52 58 42 29 10 6 16 65 71 71 77 77 77 74
0 0 0 6 3 3 0 0 3 3 3 0 0 0 0 0 0 0 0 0 0 6 10 16 23 26 29 35 39 42 35 16 6 10 6 23 71 61 68 77 81 74 81
0 0 0 0 3 0 0 0 0 0 0 0 0 0 0 0 0 0 0 0 3 6 6 10 16 13 13 3 13 23 13 10 13 10 6 45 65 65 68 74 77 77 81
0 0 0 0 0 0 0 0 0 0 0 0 0 0 0 0 0 0 0 0 0 0 0 3 3 6 0 0 0 0 0 3 10 6 6 52 71 71 71 68 71 81 81
0 0 0 0 0 0 0 0 0 0 0 0 0 0 0 0 0 0 0 0 0 0 0 0 0 0 0 0 0 0 0 0 0 3 6 48 68 74 65 61 61 77 81
0 0 0 0 0 0 0 0 0 0 0 0 0 0 0 0 0 0 0 0 0 0 0 0 0 0 0 0 0 0 0 0 0 0 0 16 58 65 61 65 61 71 74
0 0 0 0 0 0 0 0 0 0 0 0 0 0 0 0 0 0 0 0 0 0 0 0 0 0 0 0 0 0 0 0 0 0 0 3 26 55 61 52 68 61 68
0 0 0 0 0 0 0 0 0 0 0 0 0 0 0 0 0 0 0 0 0 0 0 0 0 0 0 0 0 0 0 0 0 0 0 3 6 29 45 55 71 61 68
0 0 0 0 0 0 0 0 0 0 0 0 0 0 0 0 0 0 0 0 0 0 0 0 0 0 0 0 0 0 0 0 0 0 0 0 3 3 19 35 65 71 61
0 0 0 0 0 0 0 0 0 0 0 0 0 0 0 0 0 0 0 0 0 0 0 0 0 0 0 0 0 0 0 0 0 0 0 0 0 3 3 16 29 55 71
0 0 0 0 0 0 0 0 0 0 0 0 0 0 0 0 0 0 0 0 0 0 0 0 0 0 0 0 0 0 0 0 0 0 0 0 0 0 3 6 13 23 42
0 0 0 0 0 0 0 0 0 0 0 0 0 0 0 0 0 0 0 0 0 0 0 0 0 0 0 0 0 0 0 0 0 0 0 0 0 0 0 3 3 6 16
0 0 0 0 0 0 0 0 0 0 0 0 0 0 0 0 0 0 0 0 0 0 0 0 0 0 0 0 0 0 0 0 0 0 0 0 0 0 0 0 3 3 3
0 0 0 0 0 0 0 0 0 0 0 0 0 0 0 0 0 0 0 0 0 0 0 0 0 0 0 0 0 0 0 0 0 0 0 0 0 0 0 0 0 3 3
0 0 0 0 0 0 0 0 0 0 0 0 0 0 0 0 0 0 0 0 0 0 0 0 0 0 0 0 0 0 0 0 0 0 0 0 0 0 0 0 0 0 3
0 0 0 0 0 0 0 0 0 0 0 0 0 0 0 0 0 0 0 0 0 0 0 0 0 0 0 0 0 0 0 0 0 0 0 0 0 0 0 0 0 0 0
0 0 0 0 0 0 0 0 0 0 0 0 0 0 0 0 0 0 0 0 0 0 0 0 0 0 0 0 0 0 0 0 0 0 0 0 0 0 0 0 0 0 0

GEFSSE_con_cape1000_138.txt.gz
Probability
13 29 58 52 55 58 48 45 61 58 61 74 65 71 68 71 74 77 74 81 77 74 84 90 90 87 87 84 77 77 74 74 71 71 71 77 84 81 81 74 74 65 58
16 29 61 55 58 58 58 55 58 58 58 48 58 58 58 65 58 58 61 65 61 65 74 77 87 87 90 94 84 84 81 77 61 68 77 71 77 77 77 68 71 87 58
16 29 42 48 58 55 55 48 45 52 55 48 48 52 55 48 52 52 58 71 58 58 65 61 61 77 74 77 84 84 81 74 68 71 65 74 68 65 71 68 68 61 61
16 26 26 48 55 52 42 45 45 45 42 42 48 45 45 42 39 45 45 48 55 55 52 48 55 58 74 77 81 77 71 68 74 74 65 52 58 68 65 74 68 61 61
13 19 32 52 52 45 39 35 32 29 29 29 23 23 23 26 29 29 32 39 42 45 39 48 48 55 58 65 71 74 74 65 61 61 61 77 90 74 65 77 68 55 58
13 13 29 42 39 39 29 26 23 26 29 19 13 13 16 13 19 19 26 26 26 29 32 39 42 48 42 61 65 68 65 65 55 52 58 61 84 81 68 68 71 65 58
10 13 23 39 35 26 23 23 16 19 16 16 16 10 10 10 10 10 13 19 23 23 23 26 32 39 39 48 48 74 61 52 48 52 58 58 77 65 74 68 65 65 45
6 10 10 32 26 23 16 19 16 13 10 10 6 3 3 3 0 3 6 10 6 6 10 10 13 32 35 35 42 55 65 61 39 23 48 52 61 58 77 71 65 68 58
3 3 0 6 16 19 16 10 3 3 3 6 3 0 0 0 0 3 3 3 6 6 13 16 6 13 26 29 26 52 52 48 52 42 23 48 55 58 61 68 65 68 61
0 0 0 3 3 0 0 3 3 6 3 3 0 0 0 0 0 3 0 3 3 6 6 6 10 6 16 19 26 39 42 32 42 39 32 39 52 58 65 68 71 61 61
0 0 0 3 6 3 3 0 0 0 0 0 0 0 0 0 0 0 0 0 0 0 6 6 3 10 16 16 26 23 23 32 29 35 39 42 45 55 61 65 68 61 55
0 0 0 0 0 0 0 0 0 0 0 0 0 0 0 0 0 0 0 0 0 3 3 3 0 6 6 6 13 6 6 19 23 29 35 42 48 55 61 61 65 68 55
0 0 0 0 0 0 0 0 0 0 0 0 0 0 0 0 0 0 0 0 0 0 0 0 3 3 3 6 6 6 3 3 13 19 32 45 48 52 61 52 65 58 52
0 0 0 0 0 0 0 0 0 0 0 0 0 0 0 0 0 0 0 0 0 0 0 0 3 3 3 3 6 0 3 6 13 23 35 45 52 48 58 58 61 55 58
0 0 0 3 0 3 3 3 0 0 0 0 0 0 0 0 0 0 0 0 0 0 0 0 0 3 3 6 3 0 3 10 10 19 29 29 29 48 52 58 58 52 52
0 0 3 3 3 3 3 3 0 0 0 0 0 0 0 0 0 0 0 0 0 0 0 0 3 3 0 3 3 3 3 3 6 16 26 29 32 35 45 42 48 48 52
0 0 0 3 3 3 3 0 0 0 0 0 0 0 0 0 0 0 0 0 0 0 0 0 0 0 0 6 3 6 6 6 10 10 16 23 29 32 45 35 39 52 61
0 0 0 3 0 3 3 3 0 0 0 0 0 0 0 0 0 0 0 0 0 0 0 3 3 3 3 6 6 6 6 6 6 10 10 13 29 23 32 42 45 61 52
0 0 0 3 3 3 3 3 0 0 0 0 0 0 0 0 0 0 0 0 0 0 0 0 0 3 3 6 6 6 6 6 13 3 13 16 19 32 26 29 35 55 55
0 3 3 0 3 0 3 0 0 0 0 0 0 0 0 0 0 0 0 0 0 0 0 0 3 6 0 3 0 0 10 6 16 16 13 16 19 16 19 13 32 23 45
0 0 3 0 0 0 0 0 0 0 0 0 0 0 0 0 0 0 0 0 0 0 0 0 0 3 0 3 0 3 10 10 3 16 10 16 16 13 13 13 19 29 32
0 0 0 0 0 0 0 0 0 0 0 0 0 0 0 0 0 0 0 0 0 6 3 3 3 6 6 3 3 0 6 13 10 0 16 16 16 16 19 6 10 13 19
3 0 0 0 0 0 0 0 0 0 0 0 0 0 0 0 0 0 0 0 0 0 10 3 6 6 6 3 3 3 6 0 6 13 10 10 10 13 10 13 10 3 3
3 0 0 0 0 0 0 0 0 0 0 0 0 0 0 0 0 0 0 0 0 6 6 6 6 10 3 10 10 10 3 0 6 10 10 13 10 13 3 3 0 3 6
6 3 0 0 0 0 0 0 0 0 0 0 0 0 0 0 0 0 0 0 3 3 3 6 6 13 3 3 13 13 3 6 0 3 6 6 6 3 3 3 16 16 10
3 3 3 0 0 0 0 0 0 0 0 0 0 0 0 0 0 0 0 0 3 0 3 10 10 10 6 3 10 10 6 10 13 0 6 3 3 6 3 3 3 23 19

GEFSSE_con_cape1000_144.txt.gz
Probability
48 35 74 77 74 65 65 65 61 58 55 55 52 61 65 58 55 58 58 65 61 65 65 71 77 77 77 81 81 74 71 74 74 74 77 84 81 74 77 74 81 71 84
35 32 68 77 71 61 58 55 58 55 52 61 55 55 52 48 52 52 55 58 58 48 52 65 61 74 77 74 74 74 74 71 84 81 81 84 87 81 71 65 74 74 61
35 29 45 61 52 52 48 52 52 48 52 42 35 35 32 35 35 32 39 52 61 58 52 55 61 68 71 71 71 71 74 71 77 84 87 84 87 77 74 61 74 74 61
26 23 32 55 45 52 48 42 39 35 35 29 29 29 32 29 32 35 29 29 32 39 39 42 45 48 68 71 71 71 68 68 74 77 68 65 74 77 71 68 65 71 61
23 29 35 45 39 48 35 32 29 23 29 26 16 23 23 19 19 16 10 16 23 29 32 35 35 39 48 58 68 68 58 61 74 71 61 52 55 71 71 65 65 58 61
26 26 32 45 45 45 32 29 29 32 29 23 16 16 13 13 13 10 6 13 10 16 16 19 29 32 35 35 48 42 52 61 68 55 61 61 58 74 68 68 71 45 48
23 19 23 39 45 35 29 29 26 13 19 10 10 10 10 13 10 6 0 6 10 6 10 13 10 13 23 29 39 45 48 58 48 48 61 58 55 71 58 55 55 39 55
23 13 19 39 32 32 26 23 10 10 10 6 3 3 3 3 0 0 6 3 3 3 6 6 6 6 3 16 19 29 45 61 39 35 45 58 77 71 58 45 61 48 55
0 6 10 10 16 26 16 10 6 6 3 3 3 3 3 0 0 0 3 3 3 3 0 3 6 6 6 13 13 19 29 55 29 35 23 55 68 68 58 45 58 61 55
0 0 3 10 6 0 3 10 10 3 6 6 6 3 3 3 3 3 3 0 0 0 0 3 3 3 6 13 10 16 23 26 26 19 42 58 81 71 61 55 58 65 48
0 0 0 0 3 0 0 0 6 10 6 3 3 6 3 0 0 0 0 0 0 0 0 0 3 3 10 13 19 23 23 10 6 32 39 65 61 58 58 52 65 61 52
0 3 0 0 0 0 0 0 0 0 0 0 0 0 0 0 0 0 0 0 0 0 0 6 3 3 3 6 6 26 3 0 3 19 45 68 55 42 52 48 52 55 52
0 0 3 0 0 0 0 0 0 0 0 0 0 0 0 0 0 0 0 0 0 0 0 0 3 0 0 3 3 6 3 3 6 19 39 55 52 52 42 45 58 58 48
0 0 0 0 0 0 0 0 0 0 0 0 0 0 0 0 0 0 0 0 0 0 0 3 0 0 0 0 0 0 0 3 6 13 29 48 52 52 48 45 48 58 48
0 3 0 0 0 0 0 0 0 0 0 0 0 0 0 0 0 0 0 0 0 0 0 3 3 0 0 0 0 0 0 3 3 10 26 45 52 48 45 52 55 61 48
0 0 0 0 3 3 3 3 0 0 0 0 0 0 0 0 0 0 0 0 0 0 0 0 0 0 0 0 0 0 3 3 6 16 23 26 45 45 42 48 45 45 55
0 0 0 0 0 3 3 3 0 0 0 0 0 0 0 0 0 0 0 0 0 0 0 0 0 0 0 0 0 3 3 3 6 13 23 19 23 42 45 48 48 48 45
0 0 0 0 0 0 3 3 3 0 0 0 0 0 0 0 0 0 0 0 0 0 0 0 0 0 0 0 0 3 3 3 0 10 19 23 19 19 32 45 48 55 58
0 0 0 0 0 0 3 3 3 0 0 0 0 0 0 0 0 0 0 0 0 0 0 0 0 0 0 0 0 3 3 0 3 3 3 13 16 10 16 19 42 52 52
0 0 0 0 3 3 3 3 3 0 0 0 0 0 0 0 0 0 0 0 0 0 0 0 0 0 0 0 0 0 0 3 6 3 6 6 10 6 13 10 10 16 39
0 0 0 0 3 3 3 3 3 3 0 0 0 0 0 0 0 0 0 0 0 0 0 0 0 0 0 0 0 0 0 3 3 3 3 6 6 3 10 6 10 3 10
0 0 0 0 0 3 3 3 3 3 0 0 0 0 0 0 0 0 0 0 0 0 0 0 0 0 0 0 0 0 0 0 3 0 6 6 6 6 10 10 10 10 3
0 0 0 0 0 0 0 0 0 0 0 0 0 0 0 0 0 0 0 0 0 0 0 3 0 0 3 0 0 0 0 0 0 0 0 3 3 3 0 3 0 6 3
0 0 0 0 0 0 0 0 0 0 0 0 0 0 0 0 0 0 0 0 0 0 3 3 3 0 0 0 0 0 0 0 0 0 0 0 0 3 3 0 0 0 0
0 0 0 0 0 0 0 0 0 0 0 0 0 0 0 0 0 0 0 0 0 0 3 3 3 0 0 0 0 0 0 0 0 0 0 0 0 0 3 3 3 0 0
0 0 0 0 0 0 0 0 0 0 0 0 0 0 0 0 0 0 0 0 0 0 0 0 0 0 0 0 0 0 0 0 0 0 0 0 0 3 3 3 0 0 0